Location: Grand Rapids
(42.9630°N, 85.6680°W)
Time: 05:26:39
(UTC-04:00)

Tiangong - Visible Passes

Search period start: 22 April 2024 00:00
Search period end: 02 May 2024 00:00
Orbit: 371 x 378 km, 41.5° (Epoch: 21 April)

Date Brightness Start Highest point End Pass type
(mag) Time Alt. Az. Time Alt. Az. Time Alt. Az.
22 Apr -2.1 21:04:24 10° WSW 21:07:27 64° S 21:10:31 10° E visible
22 Apr -0.7 22:40:56 10° W 22:42:51 31° WSW 22:42:51 31° WSW visible
23 Apr -2.1 21:37:59 10° W 21:41:02 62° S 21:42:50 22° ESE visible
23 Apr 0.9 23:14:44 10° W 23:14:50 11° W 23:14:50 11° W visible
24 Apr -1.6 22:11:35 10° W 22:14:29 39° SSW 22:14:44 38° S visible
25 Apr -1.9 21:08:28 10° W 21:11:29 54° S 21:14:30 10° ESE visible
25 Apr 0.2 22:45:28 10° WSW 22:46:34 16° SW 22:46:34 16° SW visible
26 Apr -0.9 21:42:01 10° W 21:44:45 29° SSW 21:46:22 18° SSE visible
27 Apr 0.2 22:16:16 10° WSW 22:17:47 13° SSW 22:18:07 13° SSW visible
28 Apr -0.3 21:12:20 10° WSW 21:14:45 21° SSW 21:17:10 10° SSE visible
